DW1024 Weather Reports


time (UTC)temp
F
wind
direction
speed
knots
gust
knots
rain 1hr
in
rain 24hr
in
rain mn
in
humidity
%
barometer
mb
20260502130307 80 97 1.7 7.8 0.00 0.00 0.00 30 1020.9
20260502121810 80 217 1.7 5.2 0.00 0.00 0.00 29 1021.5
20260502120305 78 184 2.6 7.8 0.00 0.00 0.00 33 1021.7
20260502114806 78 30 1.7 7.0 0.00 0.00 0.00 30 1022.0
20260502113311 77 242 1.7 7.0 0.00 0.00 0.00 32 1022.0
20260502111808 78 183 1.7 6.1 0.00 0.00 0.00 31 1022.2
20260502110305 77 115 0.9 6.1 0.00 0.00 0.00 33 1022.4
20260502104806 75 80 0.9 6.1 0.00 0.00 0.00 33 1022.6
20260502103309 75 59 1.7 4.3 0.00 0.00 0.00 35 1022.6
20260502101805 75 44 0.9 6.1 0.00 0.00 0.00 36 1022.9
20260502100306 74 255 0.9 5.2 0.00 0.00 0.00 37 1023.2
20260502090305 70 34 0.9 3.5 0.00 0.00 0.00 40 1023.9
20260502071532 59 165 0.0 1.7 0.00 0.00 0.00 56 1024.3
20260502064801 56 165 0.0 3.5 0.00 0.00 0.00 62 1024.3
20260502063300 52 165 0.9 1.7 0.00 0.00 0.00 69 1024.4
20260502061756 49 165 0.0 1.7 0.00 0.00 0.00 77 1024.3
20260502060300 44 195 0.0 1.7 0.00 0.00 0.00 89 1024.2
20260502054758 40 194 0.9 2.6 0.00 0.00 0.00 90 1024.2
20260502050256 37 126 0.0 0.9 0.00 0.00 0.00 88 1024.2
20260502044756 36 49 0.0 0.0 0.00 0.00 0.00 87 1024.1
20260502043255 36 49 0.0 0.0 0.00 0.00 0.00 86 1024.1
20260502041751 36 49 0.0 0.0 0.00 0.00 0.00 85 1024.2
20260502040251 36 49 0.0 0.0 0.00 0.00 0.00 85 1024.1
20260502034752 36 49 0.0 0.0 0.00 0.00 0.00 85 1024.2
20260502033254 36 49 0.0 0.0 0.00 0.00 0.00 83 1024.1
20260502031748 36 49 0.0 0.0 0.00 0.00 0.00 83 1024.2
20260502030246 37 49 0.0 0.0 0.00 0.00 0.00 83 1024.2
20260502023245 37 49 0.0 0.0 0.00 0.00 0.00 80 1024.4
20260502021746 38 49 0.0 0.0 0.00 0.00 0.00 80 1024.5
20260502014743 38 49 0.0 0.0 0.00 0.00 0.00 79 1024.6
20260502010239 40 49 0.0 0.0 0.00 0.00 0.00 78 1024.7
20260502004737 41 49 0.0 0.0 0.00 0.00 0.00 78 1024.8
20260502001737 41 49 0.0 0.0 0.00 0.00 0.00 78 1025.0
20260502000240 42 49 0.0 0.0 0.00 0.00 0.00 78 1025.0
20260501234735 42 49 0.0 0.0 0.00 0.00 0.00 77 1025.2
20260501233236 42 49 0.0 0.0 0.00 0.00 0.00 73 1025.1
20260501231735 43 49 0.0 0.0 0.00 0.00 0.00 72 1025.3
20260501224733 44 49 0.0 0.0 0.00 0.00 0.00 70 1025.4
20260501223234 45 49 0.0 0.0 0.00 0.00 0.00 69 1025.5
20260501221733 46 49 0.0 0.0 0.00 0.00 0.00 68 1025.7
20260501220236 46 49 0.0 0.0 0.00 0.00 0.00 67 1025.6
20260501211730 49 49 0.0 0.0 0.00 0.00 0.00 62 1025.7
20260501210232 51 49 0.0 0.0 0.00 0.00 0.00 60 1025.7
20260501204730 52 49 0.0 0.0 0.00 0.00 0.00 57 1026.0
20260501201729 55 49 0.0 0.0 0.00 0.00 0.00 52 1026.1
20260501194729 57 49 0.0 3.5 0.00 0.00 0.00 48 1025.9
20260501193230 58 34 0.9 3.5 0.00 0.00 0.00 48 1025.7
20260501191731 59 40 0.9 2.6 0.00 0.00 0.00 46 1025.9
20260501184729 61 32 0.0 2.6 0.00 0.00 0.00 43 1025.7
20260501183228 62 36 0.9 3.5 0.00 0.00 0.00 42 1025.6
20260501180225 64 22 1.7 5.2 0.00 0.00 0.00 40 1025.4
20260501174726 64 19 0.9 3.5 0.00 0.00 0.00 39 1025.4
20260501173225 65 27 1.7 6.1 0.00 0.00 0.00 38 1025.3
20260501170225 67 111 1.7 7.0 0.00 0.00 0.00 37 1025.3
20260501164726 67 55 2.6 8.7 0.00 0.00 0.00 36 1025.3
20260501163227 68 31 4.3 12.2 0.00 0.00 0.00 35 1025.4
20260501161726 69 47 3.5 9.6 0.00 0.00 0.00 34 1025.4
20260501160225 69 87 1.7 8.7 0.00 0.00 0.00 35 1025.4
20260501154724 69 28 2.6 10.4 0.00 0.00 0.00 35 1025.3
20260501153231 70 31 3.5 10.4 0.00 0.00 0.00 34 1025.5
20260501150223 71 74 1.7 7.8 0.00 0.00 0.00 34 1025.9